カタログに戻る

COSMOS 397 DEB

運用中LEO
NORAD 5011·DEBRIS·🇷🇺 Russia

打ち上げ Feb 25, 1971 から Baikonur Cosmodrome

Loading…

次のパス (今後24時間)

TLE

最新Source: Space-Track

元期: Sep 14, 2026, 02:06 UTC

1 05011U 71015E   26257.08782524  .00007370  00000-0  12083-2 0  9992
2 05011  65.6670 279.5712 0390745 326.3482  31.3333 14.31287797733590

AllMySatでCOSMOS 397 DEBをリアルタイム追跡

Download on the App Store